Location: Beauty Hill
(35.2623°N, 88.5417°W)
Time: 00:58:49
(UTC+00:00)

Daily predictions for brighter satellites

Satellite Brightness Start Highest point End
(mag) Time Altitude Azimuth Time Altitude Azimuth Time Altitude Azimuth
STARLINK-1079 3.9 00:35:00 10° NW 00:39:07 70° SW 00:43:13 10° SE
Cosmos 1626 2.3 00:37:09 10° N 00:40:46 50° E 00:44:21 10° SSE
ATLAS 5 CENTAUR R/B 3.8 00:38:18 10° SSE 00:41:01 14° SE 00:45:26 10° ESE
Cosmos 1733 4.4 00:37:32 10° SSW 00:41:09 47° W 00:44:49 10° N
HJ-1C 4.1 00:39:33 10° SE 00:42:36 34° ENE 00:45:41 10° N
STARLINK-1116 4.1 00:40:00 10° NW 00:44:06 63° SW 00:48:09 10° SSE
Cosmos 1953 3.2 00:42:46 10° SSE 00:46:08 27° E 00:49:30 10° NNE
Cosmos 2297 3.7 00:40:46 10° NNW 00:46:29 84° ENE 00:52:12 10° SSE
USA 186 3.6 00:46:39 10° ESE 00:48:54 17° ENE 00:51:06 10° NNE
STARLINK-1094 4.5 00:50:01 10° WNW 00:54:01 49° SW 00:57:59 10° SSE
Aureole 3 4.0 00:52:21 10° SSE 00:56:20 47° E 01:01:23 10° NNE
TSX-5 3.8 00:51:56 10° NNW 00:56:28 64° ENE 01:00:04 10° SSE
ATLAS 5 CENTAUR R/B 3.3 00:55:28 10° ESE 00:56:27 11° ESE 00:56:27 11° ESE
Ariane Rocket 3.5 00:52:04 10° SE 00:56:48 41° ENE 01:01:31 10° N
GEOS 3 Rocket 3.7 00:52:14 10° SE 00:57:17 65° NE 01:02:26 10° NNW
Cosmos 1470 2.9 00:56:10 10° S 01:00:00 80° W 01:03:55 10° N
STARLINK-1111 4.5 00:57:26 10° NNW 01:01:16 36° NE 01:04:27 14° E
FREGAT/IRIS 3.8 01:00:06 13° ESE 01:01:37 20° ENE 01:03:43 10° NNE
NOSS 3-3 (A) 3.9 00:57:54 10° SSW 01:03:36 84° WNW 01:09:55 10° NNE
NOSS 3-3 (C) 3.9 00:58:00 10° SSW 01:03:42 85° WNW 01:10:00 10° NNE
STARLINK-1073 4.3 01:02:23 10° NNW 01:06:17 39° NE 01:09:15 16° ESE
Meteor 2-15 Rocket 4.4 01:01:18 10° S 01:07:20 73° E 01:13:23 10° N
ADEOS Rocket 4.3 01:01:59 10° N 01:07:57 45° WNW 01:13:23 10° SW
STARLINK-1121 4.2 01:07:18 10° NNW 01:11:16 43° NE 01:14:01 18° ESE
Cosmos 2369 Rocket 2.7 01:08:55 10° N 01:14:18 42° ENE 01:18:36 15° SE
YAOGAN 1 4.4 01:10:30 10° SSW 01:14:25 34° W 01:18:21 10° NNW
Cosmos 1943 Rocket 2.3 01:09:57 10° NNW 01:15:25 58° ENE 01:20:44 11° SE
STARLINK-1106 4.0 01:12:15 10° NW 01:16:16 47° NE 01:18:49 20° ESE
CZ-3 Stage 3 4.0 01:14:40 10° WSW 01:20:45 64° SSE 01:56:42 10° E
STARLINK-1112 3.9 01:17:12 10° NW 01:21:15 52° NE 01:23:36 23° ESE
SPOT 3 Rocket 4.5 01:18:32 18° ESE 01:21:26 29° ENE 01:25:51 10° N
STARLINK-1128 3.8 01:22:09 10° NW 01:26:14 58° NE 01:28:22 26° ESE
Cosmos 614 Rocket 4.4 01:21:38 10° SSE 01:26:25 38° E 01:31:13 10° NE
Cosmos 1626 Rocket 4.0 01:22:47 10° NNW 01:27:06 63° W 01:31:22 10° S
Cosmos 2058 Rocket 4.4 01:27:42 21° E 01:27:42 21° E 01:30:47 10° NE
Resurs 01 Rocket 3.3 01:28:33 16° ENE 01:28:37 16° ENE 01:31:18 10° NNE
STARLINK-1113 3.7 01:27:06 10° NW 01:31:13 65° NE 01:33:09 29° ESE
Cosmos 1437 3.5 01:29:09 10° NNE 01:31:36 30° ENE 01:31:36 30° ENE
ATLAS 2AS CENTAUR R/B 4.1 01:26:02 10° N 01:32:01 25° NE 01:35:26 18° E
SJ-6B 3.1 01:30:12 20° SE 01:32:46 52° ENE 01:36:48 10° N
Cosmos 1943 3.2 01:27:17 10° SSW 01:32:55 84° WNW 01:38:38 10° NNE
Cosmos 407 Rocket 3.9 01:29:13 10° SSE 01:33:53 36° E 01:38:34 10° NE
IRIDIUM 106 4.3 01:28:48 10° N 01:33:59 66° E 01:39:09 10° S
USA 234 3.3 01:28:15 10° NE 01:34:42 59° SE 01:41:07 10° SSW
STARLINK-1119 3.6 01:32:04 10° NW 01:36:13 72° NE 01:37:57 33° ESE
Cosmos 1818 3.6 01:31:18 10° SSW 01:36:43 81° WNW 01:42:11 10° NNE
Cosmos 1602 Rocket 4.0 01:33:05 10° NNW 01:37:28 64° W 01:41:47 10° S
SL-24 R/B 3.8 01:33:43 10° NNE 01:37:39 51° E 01:40:44 14° S
Cosmos 1726 2.1 01:36:03 10° S 01:39:46 81° W 01:43:31 10° N
STARLINK-1114 3.5 01:37:02 10° NW 01:41:11 81° NE 01:42:43 37° SE
Cosmos 2184 Rocket 4.0 01:35:57 10° N 01:42:10 61° E 01:47:14 15° SSE
Cosmos 1726 Rocket 3.7 01:39:23 16° SSE 01:42:39 49° E 01:46:55 10° NNE
Cosmos 292 Rocket 3.7 01:38:11 10° NNW 01:43:01 87° WSW 01:46:36 18° SSE
Cosmos 1992 Rocket 3.9 01:38:16 10° NNW 01:43:30 82° ENE 01:47:07 20° SSE
CZ-2C R/B 2.9 01:39:25 10° SSE 01:44:26 86° WSW 01:49:16 10° NNW
STARLINK-1130 (DARKSAT) 3.5 01:41:59 10° NW 01:46:09 89° NE 01:47:30 42° SE
Aureole 2 Rocket 2.6 01:43:14 10° NNW 01:46:40 66° WSW 01:48:06 31° S
SL-8 R/B 4.4 01:45:24 10° NW 01:49:55 40° NNE 01:51:23 32° ENE
Aureole 1 Rocket 4.3 01:42:17 10° S 01:50:22 66° ESE 01:57:00 10° NNE
STARLINK-1084 3.6 01:46:59 10° NW 01:51:08 82° SW 01:52:18 46° SE
Cosmos 1825 Rocket 3.4 01:50:26 10° N 01:54:48 70° E 01:56:10 42° SSE
STARLINK-1098 3.6 01:51:59 10° NW 01:56:07 73° SW 01:57:05 50° SSE
SEDSat Delta rocket 3.4 01:51:58 10° W 01:56:43 49° S 01:57:32 44° SSE
CZ-2C R/B 3.8 01:53:32 10° N 01:58:15 80° WNW 02:02:50 10° SSW
H-2A R/B 2.7 01:53:18 10° S 01:58:29 56° W 02:03:33 10° NNW
SL-4 R/B 3.6 01:55:57 10° W 01:58:54 27° NW 02:01:32 12° NNE
Cosmos 1340 Rocket 3.8 02:02:27 32° NE 02:02:27 32° NE 02:04:55 10° NNE
STARLINK-1123 3.8 01:56:59 10° NW 02:01:05 65° SW 02:01:52 52° S
Nadezhda 1 Rocket 3.9 01:55:29 10° S 02:01:52 79° E 02:08:15 10° N
Cosmos 2154 Rocket 4.1 01:58:02 10° N 02:04:17 57° E 02:06:30 38° SE
Cosmos 1656 Rocket 3.8 01:59:03 10° N 02:04:33 51° ENE 02:05:33 46° E
MetOp-A 4.0 02:02:52 39° SSE 02:04:53 71° ENE 02:10:13 10° N
ARGOS 3.6 02:00:07 10° S 02:05:26 60° W 02:10:46 10° NNW
CZ-2C R/B 2.4 02:00:36 10° NNE 02:05:46 69° ESE 02:09:15 21° S
STARLINK-1097 3.9 02:01:58 10° NW 02:06:02 58° SW 02:06:38 51° S
STARLINK-60 4.1 02:03:47 10° WSW 02:06:55 43° NW 02:07:34 37° N
Cosmos 1758 Rocket 3.8 02:02:53 10° NNW 02:07:11 67° W 02:09:06 31° SSW
ISS -3.3 02:04:24 10° NW 02:07:14 61° WNW 02:07:14 61° WNW
Cosmos 1023 Rocket 4.4 02:06:22 38° SSE 02:08:09 59° ESE 02:13:14 10° NNE
SL-08 RB Rocket 3.9 02:06:50 31° S 02:08:56 70° W 02:13:30 10° NNW
STARLINK-1099 4.1 02:06:59 10° NW 02:11:00 52° SW 02:11:26 49° SSW
Cosmos 1606 Rocket 4.2 02:06:58 10° SSW 02:11:17 55° W 02:15:40 10° N
Cosmos 2228 3.5 02:07:41 10° SSW 02:11:53 58° W 02:16:08 10° N
Cosmos 1328 3.8 02:08:07 10° N 02:11:42 67° NNE 02:11:42 67° NNE
Hubble Space Telescope 3.4 02:10:45 10° SSW 02:10:49 10° SSW 02:10:49 10° SSW
Cosmos 1953 Rocket 3.4 02:10:12 10° N 02:14:41 78° E 02:14:45 78° E
STARLINK-1104 4.3 02:12:00 10° WNW 02:15:58 46° SW 02:16:13 45° SW
USA 186 4.4 02:17:34 12° SW 02:19:42 20° W 02:22:15 10° NW
Cosmos 1703 3.5 02:15:47 10° N 02:19:19 68° NNW 02:19:19 68° NNW
STARLINK-1144 4.5 02:17:01 10° WNW 02:20:55 41° SW 02:21:00 41° SW
Meteor 2-17 Rocket 4.3 02:22:50 10° N 02:29:01 90° E 02:30:40 52° S
ATLAS 5 CENTAUR R/B 3.1 02:36:27 10° SW 02:45:13 - NNE 02:38:26 27° WSW
Resurs 1-3 4.4 02:41:45 48° W 02:41:45 48° W 02:45:48 10° NNW
COSMOS 2455 3.9 02:40:38 10° N 02:45:05 33° NE 02:45:05 33° NE
Cosmos 1140 Rocket 4.0 02:47:18 35° SW 02:49:13 56° WNW 02:54:19 10° N
NOSS 3-4 (A) 3.8 02:44:07 10° NNW 02:51:18 68° ENE 02:51:45 66° ENE
NOSS 3-4 (C) 3.8 02:44:13 10° NNW 02:51:24 67° ENE 02:51:50 66° ENE
Cosmos 2369 Rocket 4.2 02:53:39 10° NW 02:57:58 23° W 03:00:27 17° SW
Resurs 01 Rocket 3.3 03:06:06 31° WNW 03:06:06 31° WNW 03:08:53 10° NNW
USA 234 4.5 03:11:33 10° NNE 03:17:27 38° NW 03:23:21 10° W
Cosmos 2341 Rocket 4.4 03:11:36 10° NNW 03:17:20 62° WNW 03:17:20 62° WNW
ATLAS 2AS CENTAUR R/B 3.0 03:16:21 10° NW 03:22:54 65° WNW 03:22:54 65° WNW
USA 267 4.4 07:43:07 10° NE 07:46:49 36° ENE 07:46:49 36° ENE
CZ-2D R/B 4.5 07:52:37 10° N 07:53:56 18° N 07:53:56 18° N
Cosmos 2297 Rocket 4.0 08:07:43 27° ENE 08:07:43 27° ENE 08:10:48 10° NE
ARIANE 5 R/B 4.3 08:14:51 10° NNE 08:17:31 29° NE 08:17:31 29° NE
VEP-3 4.5 08:24:11 37° SSE 08:24:39 37° SSE 08:45:34 10° E
NOSS 3-2 (A) 4.2 08:29:30 44° ENE 08:29:30 44° ENE 08:33:56 10° NE
Cosmos 2227 Rocket 3.2 08:33:04 43° ENE 08:33:04 43° ENE 08:37:09 10° NNE
CENTAUR R/B 3.5 08:40:19 34° ESE 08:40:28 34° ESE 08:46:07 10° NE
Cosmos 1980 4.1 08:46:44 10° NNW 08:52:20 58° ENE 08:53:08 53° E
NOSS 3-2 (C) 3.6 08:57:53 60° ESE 08:57:53 60° ESE 09:03:51 10° NE
Cosmos 2082 3.9 09:06:31 61° SE 09:06:57 63° ESE 09:12:36 10° NNE
SL-16 R/B 4.2 09:03:59 10° N 09:08:42 26° ENE 09:13:25 10° ESE
deb Chang Zheng 4 4.5 09:04:33 10° NNE 09:08:06 47° ENE 09:08:06 47° ENE
Meteor 1-19 Rocket 4.4 09:08:49 62° SE 09:09:29 69° E 09:15:01 10° NNE
ADEOS II 3.7 09:09:50 10° N 09:12:15 22° NNW 09:12:15 22° NNW
BREEZE-M DEB (TANK) 3.8 09:13:17 10° NW 09:18:18 44° NNE 09:22:06 10° ESE
Cosmos 1634 Rocket 3.8 09:12:50 10° NNW 09:18:54 67° W 09:18:54 67° W
CZ-2C R/B 4.3 09:18:13 10° N 09:20:29 32° N 09:20:29 32° N
Sich 1 Rocket 4.1 09:18:40 10° N 09:22:58 55° E 09:24:08 41° SE
STARLINK-1063 4.5 09:26:16 44° ESE 09:26:16 44° ESE 09:29:52 10° ENE
Cosmos 1125 Rocket 3.3 09:26:12 78° WSW 09:26:28 82° WNW 09:31:49 10° NNE
STARLINK-1064 4.2 09:31:03 51° ESE 09:31:03 51° ESE 09:34:53 10° NE
Okean 3 3.7 09:31:55 61° SE 09:32:16 65° E 09:36:24 10° NNE
USA 267 4.2 09:26:35 10° NNE 09:32:17 33° NNW 09:34:11 28° WNW
Cosmos 389 Rocket 3.4 09:33:55 47° NNE 09:33:55 47° NNE 09:36:37 10° NNE
IDEFIX/ARIANE 42P 2.4 09:28:04 10° N 09:33:15 72° WNW 09:33:47 66° WSW
Cosmos 2237 Rocket 2.1 09:28:38 10° NNW 09:34:15 65° WSW 09:39:51 10° S
Geosat 4.0 09:29:47 10° NNE 09:34:50 78° ESE 09:36:07 50° S
ATLAS 3B R/B 3.2 09:31:05 24° S 09:34:57 52° ESE 09:41:21 10° NE
MSX 3.9 09:29:12 10° NNE 09:34:59 78° ESE 09:37:58 30° S
STARLINK-1041 3.9 09:35:52 58° SE 09:35:52 58° SE 09:39:54 10° NE
Cosmos 2142 Rocket 4.4 09:29:51 10° NNW 09:36:09 67° W 09:38:54 34° SSW
Meteor 1-18 Rocket 4.4 09:39:40 49° W 09:40:03 49° WNW 09:45:39 10° N
STARLINK-1038 3.7 09:40:37 65° SSE 09:40:47 65° SE 09:44:54 10° NE
Cosmos 1544 3.2 09:38:43 10° N 09:42:03 70° NNE 09:42:03 70° NNE
PSLV R/B 3.6 09:39:45 10° NNE 09:44:08 79° ESE 09:45:29 44° S
Cosmos 2263 Rocket 4.2 09:41:12 10° SSE 09:45:44 25° ESE 09:50:18 10° NE
STARLINK-1046 3.6 09:45:25 68° S 09:45:46 74° SE 09:49:54 10° NE
Meteor 2-4 Rocket 3.7 09:45:05 26° S 09:48:36 85° W 09:54:33 10° N
Cosmos 2297 Rocket 3.2 09:49:32 28° WNW 09:49:44 28° WNW 09:54:34 10° N
Cosmos 1689 Rocket 4.1 09:47:19 10° SE 09:49:59 30° ENE 09:52:40 10° N
COBE Rocket 3.8 09:49:11 46° SSW 09:50:19 59° W 09:55:00 10° NNW
STARLINK-1039 3.5 09:50:10 66° SSW 09:50:42 82° SE 09:54:51 10° NE
CZ-4B R/B 1.4 09:50:29 62° SSE 09:51:00 83° ENE 09:54:30 10° N
CBERS 1 LM4 rocket 4.3 09:47:04 10° N 09:52:01 79° WNW 09:54:25 32° SSW
Cosmos 468 4.4 09:46:56 10° NNW 09:52:15 71° WSW 09:57:32 10° S
USA 238 DEB 4.4 09:51:12 30° W 09:53:01 35° NW 09:59:12 10° NNE
USA 238 4.4 09:51:15 30° W 09:53:07 35° NW 09:59:21 10° NNE
STARLINK-1045 3.5 09:54:57 60° SW 09:55:41 89° NNW 09:59:49 10° NE
ADEOS 3.7 09:52:09 10° NNE 09:57:23 77° ESE 10:02:05 13° S
Meteor 2-9 Rocket 4.2 09:52:13 10° NNW 09:58:02 69° W 10:03:50 10° S
ARIANE 5 R/B 4.3 09:55:20 10° NNW 09:57:52 16° NW 09:57:52 16° NW
STARLINK-1050 3.5 09:59:48 53° WSW 10:00:43 79° NW 10:04:51 10° NE
USA 234 3.7 09:57:01 10° ESE 10:03:28 64° NE 10:09:54 10° NW
Nadezhda 4 Rocket 3.9 09:58:31 11° S 10:04:33 77° W 10:10:54 10° N
STARLINK-1055 3.6 10:04:35 46° WSW 10:05:42 71° NW 10:09:50 10° NE
FALCON 9 DEB 2.9 10:07:52 45° WNW 10:08:43 70° SW 10:12:07 10° SE
Cosmos 2279 Rocket 4.3 10:04:00 10° NNW 10:09:48 42° W 10:15:28 11° SSW
STARLINK-1022 3.7 10:09:23 40° WSW 10:10:40 64° NW 10:14:48 10° NE
BREEZE M DEB (TANK) 4.4 10:10:46 12° NNW 10:11:17 13° NNW 10:12:48 10° NNE
STARLINK-1042 3.8 10:14:09 35° WSW 10:15:39 57° NW 10:19:44 10° NE
ASTRO E2 4.1 10:15:51 22° SSW 10:15:51 22° SSW 10:18:57 10° SSE
Cosmos 2227 Rocket 3.6 10:14:55 18° WNW 10:16:02 20° WNW 10:20:04 10° N
STARLINK-29 3.3 10:18:11 41° WSW 10:18:29 43° SW 10:21:35 10° SSE
Cosmos 1484 Rocket 4.3 10:16:18 10° NNE 10:19:48 35° E 10:23:15 10° SSE
STARLINK-1056 3.9 10:18:54 30° WSW 10:20:37 52° NW 10:24:41 10° NE
TRAILBLAZER 4.5 10:20:49 10° NNW 10:25:22 79° WSW 10:29:51 10° SSE
STARLINK-1054 4.1 10:23:41 26° W 10:25:36 47° NW 10:29:37 10° NE
Meteor 1-13 Rocket 4.3 10:21:19 10° SSW 10:27:00 58° W 10:32:37 10° N
Cosmos 1818 4.4 10:21:49 10° NNW 10:27:09 55° ENE 10:32:27 10° SE
PAYLOAD A 4.3 10:23:21 10° N 10:28:33 50° WNW 10:33:33 10° SSW
Cosmos 1356 3.4 10:27:07 10° NNW 10:30:29 58° W 10:33:50 10° S
STARLINK-1062 4.2 10:28:28 23° W 10:30:36 43° NW 10:34:33 10° NNE
CENTAUR R/B 3.2 10:27:30 20° W 10:30:57 35° NW 10:37:05 10° NNE
Meteor 1-12 Rocket 4.3 10:27:05 10° NNW 10:32:55 59° W 10:38:38 10° S
Cosmos 1867 3.6 10:29:40 10° SSW 10:35:06 89° WNW 10:40:35 10° NNE
H-2A R/B 3.0 10:31:32 10° NNE 10:35:31 56° E 10:39:21 10° S
STARLINK-1053 4.3 10:33:16 20° W 10:35:37 39° NW 10:39:31 10° NNE
CZ-2C R/B 2.6 10:33:12 10° N 10:37:32 44° WNW 10:41:52 10° SW
ATLAS 5 CENTAUR R/B 2.0 10:32:04 11° SW 10:38:27 59° WNW 10:41:02 10° NNE
Cosmos 1674 Rocket 3.8 10:34:27 10° SSW 10:38:43 49° W 10:42:59 10° N
STARLINK-1061 4.5 10:38:02 18° W 10:40:35 35° NW 10:44:26 10° NNE
Cosmos 1437 Rocket 3.4 10:41:20 10° S 10:45:22 64° E 10:49:26 10° NNE
SeaSat 1 2.4 10:42:36 10° SSE 10:47:31 73° WSW 10:52:28 10° NNW
Cosmos 494 Rocket 4.4 10:43:42 10° NW 10:48:33 39° W 10:53:23 10° SSW
FENGYUN 3A 4.1 10:45:30 10° NNE 10:50:52 66° ESE 10:56:12 10° S
ALOS 2.7 10:46:48 10° NNE 10:51:28 68° E 10:56:06 10° S
Chandra Rocket (1) 3.8 10:39:01 13° WSW 10:51:43 51° S 10:56:15 10° ESE
SL-16 R/B 2.7 10:47:40 10° NW 10:52:51 38° WSW 10:58:01 10° S
Meteor 1-4 Rocket 3.9 10:50:26 12° SW 10:53:01 22° WNW 10:56:00 10° NNW
Meteor 1-15 Rocket 4.2 10:47:42 10° N 10:53:19 88° W 10:58:58 10° S
Cosmos 1378 3.5 10:50:02 10° S 10:53:41 67° E 10:57:23 10° NNE
Cosmos 1066 Rocket 4.3 10:47:57 10° SSW 10:53:45 70° W 10:59:36 10° N
Cosmos 1269 Rocket 4.2 10:48:42 10° NNW 10:53:51 52° WSW 10:58:58 10° S
Cosmos 967 Rocket 4.5 10:47:50 10° NNW 10:54:14 69° WSW 11:00:32 10° SSE
SJ-12 4.4 10:51:56 10° NNE 10:56:00 64° E 11:00:01 10° S
Meteor 1-23 Rocket 4.3 10:51:55 10° SSW 10:57:29 58° W 11:03:10 10° N
Timation 1 Rocket 4.5 10:56:38 10° SW 11:02:32 58° WNW 11:08:29 10° NNE
Okean 2 3.8 10:59:44 10° S 11:03:50 70° E 11:07:56 10° NNE
PSLV R/B 4.3 11:00:41 10° S 11:04:40 42° W 11:08:41 10° NNW
Meteor 1-31 Rocket 3.4 11:01:03 10° N 11:04:42 37° WNW 11:08:19 10° SW
Shenzhou-11 Module 3.6 11:04:23 10° SSW 11:06:29 23° SE 11:08:37 10° E
Okean O Rocket 3.9 11:04:01 10° NE 11:07:52 29° E 11:11:42 10° SSE
PSLV R/B 4.0 11:06:29 10° NNE 11:10:37 83° ESE 11:14:38 10° S
